Waarnemingen

Advertentie
Mijn weer
Florennes, België (6456): temperatuur & dauwpunt: 20.09.2020 16:00:00 - 26.09.2020 16:00:00 (CEST)Florennes, België (6456): windsnelheid & windstoten: 20.09.2020 16:00:00 - 26.09.2020 16:00:00 (CEST)Florennes, België (6456): windrichting: 20.09.2020 16:00:00 - 26.09.2020 16:00:00 (CEST)Florennes, België (6456): luchtdruk: 20.09.2020 16:00:00 - 26.09.2020 16:00:00 (CEST)Florennes, België (6456): zicht: 20.09.2020 16:00:00 - 26.09.2020 16:00:00 (CEST)
Datum & Tijd tt [°C] td [°C] ff [km/u] ff [kn] fx [km/u] fx [kn] dd ppp [hPa] vv [km]
26.09.2020 16:00:00 - - - - - - - - -
26.09.2020 15:00:00 8,0 7,5 29 16 40 21 W 1003,0 8
26.09.2020 14:00:00 7,9 7,5 29 16 - - W 1002,6 4,4
26.09.2020 13:00:00 7,9 7,0 32 18 50 27 W 1002,5 8
26.09.2020 12:00:00 8,2 7,5 25 14 40 21 WNW 1002,0 20
26.09.2020 11:00:00 7,7 7,2 22 12 - - W 1001,7 6
26.09.2020 10:00:00 8,2 7,7 22 12 40 21 W 1001,0 12
26.09.2020 09:00:00 7,8 7,3 25 14 43 23 W 1000,7 7
26.09.2020 08:00:00 8,3 7,2 25 14 - - WNW 1000,2 8
26.09.2020 07:00:00 7,8 7,4 32 18 58 31 W 999,6 6
26.09.2020 06:00:00 7,8 7,3 36 19 58 31 W 999,2 5
26.09.2020 05:00:00 7,8 7,3 36 19 - - W 999,3 3,2
26.09.2020 04:00:00 7,9 7,0 43 23 65 35 W 999,5 2,5
26.09.2020 03:00:00 7,9 6,4 42 23 68 37 W 999,6 6
26.09.2020 02:00:00 7,7 5,7 42 23 - - W 1000,2 4,5
26.09.2020 01:00:00 8,9 4,3 43 23 68 37 W 1000,2 19
26.09.2020 00:00:00 8,8 4,7 40 21 65 35 W 1000,6 19
25.09.2020 23:00:00 8,3 6,2 40 21 - - W 1000,7 14
25.09.2020 22:00:00 8,0 6,4 39 21 58 31 W 1000,7 7
25.09.2020 21:00:00 8,3 6,4 36 19 54 29 W 1001,1 6
25.09.2020 20:00:00 8,3 6,7 25 14 - - W 1001,2 4,4
25.09.2020 19:00:00 8,6 7,1 29 16 43 23 W 1000,8 10
25.09.2020 18:00:00 9,1 7,0 25 14 50 27 W 1000,5 20
25.09.2020 17:00:00 9,5 7,0 32 18 - - W 999,8 8
25.09.2020 16:00:00 9,3 8,1 25 14 40 21 W 999,0 15
25.09.2020 15:00:00 10,0 7,5 22 12 32 18 W 997,7 20
25.09.2020 14:00:00 8,7 6,3 18 10 - - WNW 997,6 20
25.09.2020 13:00:00 9,8 7,6 14 8 29 16 ZZW 997,0 15
25.09.2020 12:00:00 9,5 6,9 18 10 32 18 ZZW 996,9 20
25.09.2020 11:00:00 8,3 7,3 18 10 - - ZZW 997,0 4,0
25.09.2020 10:00:00 8,3 6,8 14 8 29 16 ZZW 996,5 20
25.09.2020 09:00:00 8,0 6,4 18 10 32 18 ZZW 996,5 8
25.09.2020 08:00:00 7,9 6,0 22 12 - - ZZW 996,6 20
25.09.2020 07:00:00 7,5 5,8 22 12 36 19 Z 997,0 20
25.09.2020 06:00:00 7,1 5,1 22 12 36 19 ZZW 996,9 20
25.09.2020 05:00:00 7,3 5,7 22 12 - - ZZW 997,7 20
25.09.2020 04:00:00 7,7 6,3 14 8 40 21 ZZW 997,9 20
25.09.2020 03:00:00 8,3 6,6 22 12 40 21 ZW 998,0 20
25.09.2020 02:00:00 9,3 7,2 21 11 - - ZW 998,1 10
25.09.2020 01:00:00 10,2 9,1 18 10 32 18 ZZW 998,0 20
25.09.2020 00:00:00 10,6 9,4 22 12 43 23 ZZW 997,8 20
24.09.2020 23:00:00 11,3 10,1 18 10 - - ZZW 997,8 20
24.09.2020 22:00:00 12,6 10,1 18 10 40 21 Z 997,8 20
24.09.2020 21:00:00 12,6 10,2 14 8 25 14 Z 997,9 20
24.09.2020 20:00:00 12,5 11,0 14 8 - - ZZO 998,4 20
24.09.2020 19:00:00 12,7 10,9 11 6 29 16 Z 999,2 20
24.09.2020 18:00:00 - - - - - - - - -
24.09.2020 17:00:00 16,1 7,6 24 13 - - Z 1000,5 10
24.09.2020 16:00:00 15,6 6,8 22 12 47 25 Z 1001,6 20
24.09.2020 15:00:00 15,5 6,5 25 14 50 27 Z 1002,3 20
24.09.2020 14:00:00 14,2 6,9 29 16 - - ZZW 1003,7 20
24.09.2020 13:00:00 13,8 7,2 25 14 47 25 ZZW 1004,2 20
24.09.2020 12:00:00 13,7 7,5 25 14 43 23 ZZW 1004,6 20
24.09.2020 11:00:00 12,5 6,8 25 14 - - ZZW 1005,1 20
24.09.2020 10:00:00 11,0 8,8 22 12 36 19 ZZW 1005,5 20
24.09.2020 09:00:00 9,8 8,4 18 10 32 18 ZZW 1005,7 20
24.09.2020 08:00:00 9,1 8,4 18 10 - - ZZW 1005,6 15
24.09.2020 07:00:00 9,6 8,6 22 12 36 19 ZW 1005,3 20
24.09.2020 06:00:00 9,8 8,9 21 11 32 18 ZW 1005,2 10
24.09.2020 05:00:00 10,0 8,5 18 10 - - ZW 1004,6 20
24.09.2020 04:00:00 10,8 9,2 22 12 32 18 ZW 1004,1 20
24.09.2020 03:00:00 11,6 9,8 18 10 40 21 WZW 1003,2 20
24.09.2020 02:00:00 12,5 10,1 34 18 - - W 1002,2 10
24.09.2020 01:00:00 14,5 13,8 22 12 29 16 ZZW 1001,2 20
24.09.2020 00:00:00 14,8 13,9 21 11 40 21 ZZW 1001,3 6
23.09.2020 23:00:00 14,6 13,8 16 9 - - ZZW 1001,8 10
23.09.2020 22:00:00 17,3 12,3 11 6 18 10 Z 1001,2 20
23.09.2020 21:00:00 16,3 13,1 7 4 36 19 Z 1001,8 20
23.09.2020 20:00:00 18,8 11,5 14 8 - - Z 1002,3 20
23.09.2020 19:00:00 19,3 11,5 14 8 40 21 ZZW 1002,6 20
23.09.2020 18:00:00 19,7 11,4 25 14 40 21 ZZW 1003,3 20
23.09.2020 17:00:00 19,5 11,5 25 14 - - ZW 1004,0 20
23.09.2020 16:00:00 19,7 10,8 25 14 47 25 ZW 1004,5 20
23.09.2020 15:00:00 19,6 10,9 32 18 43 23 ZW 1004,8 20
23.09.2020 14:00:00 20,0 11,1 32 18 - - ZZW 1005,1 19
23.09.2020 13:00:00 19,2 12,0 29 16 47 25 ZZW 1005,6 20
23.09.2020 12:00:00 19,1 11,4 26 14 43 23 ZZW 1006,0 10
23.09.2020 11:00:00 17,4 11,8 22 12 - - Z 1006,3 16
23.09.2020 10:00:00 14,5 9,1 22 12 25 14 Z 1007,0 20
23.09.2020 09:00:00 13,1 7,8 18 10 22 12 Z 1007,2 20
23.09.2020 08:00:00 12,8 7,7 14 8 - - Z 1007,2 17
23.09.2020 07:00:00 13,3 6,8 4 2 7 4 N 1007,1 19
23.09.2020 06:00:00 13,5 7,3 4 2 4 2 N 1007,0 17
23.09.2020 05:00:00 11,1 6,6 4 2 - - N 1007,6 13
23.09.2020 04:00:00 12,6 6,9 4 2 7 4 N 1007,7 16
23.09.2020 03:00:00 14,3 6,8 7 4 7 4 WZW 1007,7 13
23.09.2020 02:00:00 11,8 6,4 4 2 - - N 1008,2 13
23.09.2020 01:00:00 13,6 6,4 4 2 4 2 N 1008,2 17
23.09.2020 00:00:00 13,0 6,7 4 2 4 2 N 1008,3 12
22.09.2020 23:00:00 16,3 6,5 4 2 - - N 1008,1 12
22.09.2020 22:00:00 16,8 6,9 7 4 11 6 W 1008,2 12
22.09.2020 21:00:00 - - - - - - - - -
22.09.2020 20:00:00 19,2 4,2 4 2 - - N 1008,0 12
22.09.2020 19:00:00 21,6 2,2 14 8 29 16 ZZW 1007,7 12
22.09.2020 18:00:00 23,2 -0,1 18 10 29 16 ZZW 1007,5 12
22.09.2020 17:00:00 24,5 1,6 11 6 - - Z 1007,7 12
22.09.2020 16:00:00 24,1 3,5 14 8 22 12 ZW 1008,6 12
22.09.2020 15:00:00 24,0 4,8 7 4 18 10 ZZW 1009,1 12
22.09.2020 14:00:00 23,4 5,1 7 4 - - ZW 1009,7 12
22.09.2020 13:00:00 22,1 5,7 4 2 11 6 N 1010,3 12
22.09.2020 12:00:00 21,0 7,5 4 2 11 6 N 1011,1 12
22.09.2020 11:00:00 19,2 7,7 4 2 - - N 1011,7 12
22.09.2020 10:00:00 15,5 10,0 4 2 4 2 N 1012,2 7
22.09.2020 09:00:00 11,6 9,0 4 2 4 2 N 1012,7 4,0
22.09.2020 08:00:00 10,9 9,7 4 2 - - N 1012,7 1,7
22.09.2020 07:00:00 10,1 8,5 4 2 4 2 N 1012,7 3,3
22.09.2020 06:00:00 10,8 8,9 5 3 4 2 W 1013,1 4,7
22.09.2020 05:00:00 9,1 7,2 4 2 - - N 1013,5 9
22.09.2020 04:00:00 11,7 8,2 4 2 4 2 N 1013,5 11
22.09.2020 03:00:00 13,3 8,0 4 2 7 4 N 1013,7 17
22.09.2020 02:00:00 13,6 7,5 7 4 - - WZW 1014,0 15
22.09.2020 01:00:00 14,0 7,4 4 2 7 4 N 1014,5 20
22.09.2020 00:00:00 12,7 6,7 4 2 7 4 N 1015,0 20
21.09.2020 23:00:00 15,5 7,4 4 2 - - N 1014,7 20
21.09.2020 22:00:00 16,6 7,1 4 2 7 4 N 1014,6 20
21.09.2020 21:00:00 18,2 6,5 4 2 14 8 N 1014,2 20
21.09.2020 20:00:00 19,3 6,2 7 4 - - N 1013,8 20
21.09.2020 19:00:00 21,4 6,3 7 4 14 8 N 1013,6 20
21.09.2020 18:00:00 23,6 5,5 4 2 14 8 N 1013,5 20
21.09.2020 17:00:00 24,3 5,6 4 2 - - N 1013,7 20
21.09.2020 16:00:00 24,4 5,0 7 4 18 10 N 1014,0 20
21.09.2020 15:00:00 24,4 5,3 4 2 14 8 N 1014,2 20
21.09.2020 14:00:00 23,1 5,9 4 2 - - N 1015,0 20
21.09.2020 13:00:00 21,9 6,6 4 2 11 6 N 1015,2 20
21.09.2020 12:00:00 19,7 6,0 4 2 14 8 N 1015,7 20
21.09.2020 11:00:00 17,6 6,7 4 2 - - N 1016,2 20
21.09.2020 10:00:00 14,8 7,6 4 2 11 6 N 1016,5 20
21.09.2020 09:00:00 11,7 6,9 4 2 14 8 N 1016,8 20
21.09.2020 08:00:00 7,5 5,0 4 2 - - N 1017,2 15
21.09.2020 07:00:00 11,1 5,5 4 2 11 6 N 1016,5 20
21.09.2020 06:00:00 10,3 5,1 4 2 0 0 N 1016,5 20
21.09.2020 05:00:00 11,5 5,5 4 2 - - N 1016,2 20
21.09.2020 04:00:00 11,4 5,5 4 2 0 0 N 1016,3 20
21.09.2020 03:00:00 13,0 5,6 0 0 4 2 N 1016,7 20
21.09.2020 02:00:00 13,6 5,6 4 2 - - N 1016,6 20
21.09.2020 01:00:00 14,1 5,6 7 4 7 4 NO 1016,7 20
21.09.2020 00:00:00 15,3 5,7 4 2 11 6 N 1016,7 20
20.09.2020 23:00:00 16,3 5,8 4 2 - - N 1016,7 20
20.09.2020 22:00:00 16,5 5,8 4 2 14 8 N 1016,7 20
20.09.2020 21:00:00 16,6 5,4 11 6 18 10 NNO 1016,6 20
20.09.2020 20:00:00 17,7 6,3 11 6 - - N 1015,7 20
20.09.2020 19:00:00 20,0 6,6 11 6 18 10 N 1015,1 20
20.09.2020 18:00:00 22,3 5,4 11 6 22 12 N 1014,7 20
20.09.2020 17:00:00 23,7 5,6 14 8 - - NNO 1014,6 20
20.09.2020 16:00:00 24,1 6,4 14 8 25 14 N 1014,5 20

tt = temperatuur
td = dauwpunt
ff = windsnelheid
fx = windstoten
dd = windrichting
ppp = luchtdruk
vv = zicht

Weerstations in de omgeving